カタログに戻る

STARLINK-34189

運用中通信VLEO
NORAD 64121·PAYLOAD·🇺🇸 United States

打ち上げ May 23, 2025 から Vandenberg Space Force Base

Loading…

次のパス (今後24時間)

TLE

最新Source: CelesTrak SupGP

元期: Sep 15, 2026, 03:55 UTC

1 64121C 25110AB  26258.16368056 -.00046068  00000+0 -14815-2 0  2585
2 64121  53.1590 226.6512 0001530  87.0723 215.9184 15.31723738    10

AllMySatでSTARLINK-34189をリアルタイム追跡

Download on the App Store